Location: Newark
(42.7133°N, 87.7910°W)
Time: 09:11:38
(UTC+00:00)

Vanguard 1 - Pass Details

Date: 28 September 2019
Orbit: 653 x 3830 km, 34.2° (Epoch: 18 October)

Event Time Altitude Azimuth Distance (km) Brightness Sun altitude
Rises 09:23:52 0° 269° (W) 7,792 - -26.1°
Reaches altitude 10° 09:29:04 10° 267° (W) 6,891 - -25.2°
Exits shadow 09:37:20 28° 261° (W) 5,485 13.2 -23.8°
Maximum altitude 09:52:07 64° 194° (SSW) 3,688 12.7 -21.2°
Drops below altitude 10° 10:08:27 10° 118° (ESE) 5,117 14.4 -18.4°
Sets 10:11:39 0° 115° (ESE) 5,781 14.8 -17.8°
